Home > Weather > Sedona > Past weeks

Flag for U.S.A. Weather for the Past 2 Weeks in Sedona, Arizona, U.S.A.

Now
52 °F

Sunny.


Feels Like: 52 °F
Forecast: 46 / 70 °F
Wind: No wind

Location: Sedona Airport

Current Time: Feb 14, 2016 at 10:01:56 AM

Latest Report: Feb 14, 2016 at 9:15 AM


Visibility: 10 mi

Pressure: 30.18 "Hg (25.87 "Hg at 1282m altitude)

Humidity: 32%

Dew point: 23 °F

Location of SedonaLocation

Historic Weather in Sedona — Graph

°F

Sedona Temperature Yesterday

Maximum temperature yesterday: 73 °F (at 3:15 PM)
Minimum temperature yesterday: 50 °F (at 2:55 AM)
Average temperature yesterday: 58 °F

High & Low Weather Summary for the Past Weeks

 TemperatureHumidityPressure
High75 °F (Feb 12, 3:15 PM)100% (Jan 31, 10:55 PM)30.47 "Hg (Jan 31, 10:55 PM)
Low21 °F (Feb 2, 4:15 AM)10% (Feb 9, 2:15 PM)29.51 "Hg (Jan 31, 9:35 PM)
Average48 °F35%30.21 "Hg
* Reported Jan 30 8:15 AM — Feb 14 8:55 AM, Sedona, Weather by CustomWeather, © 2016

Note: Actual official high and low records may vary slightly from our data, if they occured in-between our weather recording intervals... More about our weather records

Advertising

Sedona Weather History for the Previous 24 Hours

 ConditionsComfort  
Time TempWeatherWind HumidityBarometerVisibility
8:55 AM
Sun, Feb 14
52 °FSunny.No wind32%30.16 "Hg10 mi
8:35 AM54 °FSunny.7 mph30%30.14 "Hg10 mi
8:15 AM48 °FSunny.13 mph34%30.15 "Hg10 mi
7:55 AM48 °FSunny.12 mph34%30.14 "Hg10 mi
7:35 AM46 °FSunny.8 mph37%30.14 "Hg10 mi
7:15 AM48 °FSunny.No wind34%30.13 "Hg10 mi
6:55 AM48 °FClear.8 mph34%30.13 "Hg10 mi
6:35 AM48 °FClear.10 mph32%30.12 "Hg10 mi
6:15 AM50 °FClear.9 mph30%30.11 "Hg10 mi
5:55 AM52 °FClear.13 mph28%30.12 "Hg10 mi
5:35 AM52 °FClear.14 mph28%30.13 "Hg10 mi
5:15 AM52 °FClear.15 mph26%30.13 "Hg10 mi
4:55 AM52 °FClear.12 mph26%30.13 "Hg10 mi
4:35 AM52 °FClear.14 mph24%30.13 "Hg10 mi
4:15 AM50 °FClear.10 mph25%30.14 "Hg10 mi
3:55 AM50 °FClear.15 mph25%30.13 "Hg10 mi
3:35 AM50 °FClear.14 mph28%30.13 "Hg10 mi
3:15 AM52 °FClear.14 mph28%30.13 "Hg10 mi
2:55 AM50 °FClear.15 mph30%30.14 "Hg10 mi
2:35 AM52 °FClear.12 mph28%30.15 "Hg10 mi
2:15 AM50 °FClear.16 mph30%30.15 "Hg10 mi
1:55 AM50 °FClear.12 mph30%30.15 "Hg10 mi
1:35 AM50 °FClear.10 mph30%30.17 "Hg10 mi
1:15 AM50 °FClear.15 mph28%30.16 "Hg10 mi
12:35 AM50 °FClear.10 mph30%30.14 "Hg10 mi
12:15 AM52 °FClear.10 mph28%30.14 "Hg10 mi
11:55 PM
Sat, Feb 13
54 °FClear.13 mph24%30.15 "Hg10 mi
11:35 PM54 °FClear.14 mph24%30.15 "Hg10 mi
11:15 PM54 °FClear.15 mph24%30.15 "Hg10 mi
10:55 PM54 °FClear.14 mph24%30.15 "Hg10 mi
10:35 PM54 °FClear.12 mph24%30.16 "Hg10 mi
10:15 PM54 °FClear.12 mph26%30.16 "Hg10 mi
9:55 PM55 °FClear.9 mph24%30.15 "Hg10 mi
9:15 PM55 °FClear.12 mph24%30.17 "Hg10 mi
8:35 PM55 °FClear.10 mph26%30.17 "Hg10 mi
8:15 PM59 °FClear.No wind21%30.15 "Hg10 mi
7:55 PM57 °FClear.No wind23%30.15 "Hg10 mi
7:15 PM63 °FClear.No wind19%30.14 "Hg10 mi
6:35 PM63 °FClear.No wind16%30.14 "Hg10 mi
6:15 PM66 °FClear.No wind13%30.14 "Hg10 mi
5:55 PM68 °FSunny.No wind12%30.14 "Hg10 mi
5:35 PM66 °FSunny.No wind14%30.14 "Hg10 mi
5:15 PM68 °FSunny.No wind13%30.14 "Hg10 mi
4:55 PM70 °FSunny.No wind12%30.14 "Hg10 mi
4:15 PM72 °FSunny.5 mph12%30.13 "Hg10 mi
3:55 PM72 °FSunny.No wind13%30.13 "Hg10 mi
3:15 PM73 °FSunny.No wind14%30.14 "Hg10 mi
2:55 PM72 °FSunny.No wind15%30.15 "Hg10 mi
2:35 PM72 °FSunny.No wind14%30.15 "Hg10 mi
1:55 PM72 °FSunny.No wind15%30.17 "Hg10 mi
1:35 PM72 °FSunny.No wind14%30.18 "Hg10 mi
1:15 PM72 °FSunny.No wind15%30.19 "Hg10 mi
12:55 PM70 °FSunny.No wind16%30.19 "Hg10 mi
12:35 PM70 °FSunny.No wind16%30.21 "Hg10 mi
12:15 PM70 °FSunny.No wind18%30.22 "Hg10 mi
11:55 AM68 °FSunny.No wind21%30.23 "Hg10 mi
11:35 AM64 °FSunny.No wind24%30.24 "Hg10 mi
11:15 AM64 °FSunny.No wind26%30.24 "Hg10 mi
10:55 AM63 °FSunny.No wind25%30.25 "Hg10 mi
10:35 AM61 °FSunny.No wind27%30.25 "Hg10 mi
10:15 AM61 °FSunny.No wind27%30.25 "Hg10 mi
Weather by CustomWeather, © 2016

See weather overviewHow to use our weather pages